[[{"header":{"parameterUnit":"m.s-1","parameterCategory":1,"la1":30.2991,"la2":30.254,"lo1":-89.0895,"lo2":-89.0444,"dx":0.0017,"dy":0.0017,"nx":28,"ny":28,"refTime":"2022-11-15T15:00:00:Z","depth":0,"parameterNumber":2,"parameterNumberName":"U-component_of_WINDS"},"data":[0,0,0,0,0,0,0,0,0,0,0,0,0,0,0,0,0,0,0,0,0,0,0,0,0,0,0,0,0,0,0,0,0,0,0,0,0,0,0,0,0,0,0,0,0,0,0,0,0,0,0,0,0,0,0,0,0,0,-0.1834,-0.1834,0,-0.1777,-0.1777,-0.1776,-0.1645,-0.1642,-0.1639,-0.1637,-0.1587,-0.1588,-0.1589,0,0,0,0,0,0,0,0,0,0,0,0,0,-0.1836,-0.1837,-0.1834,-0.1834,-0.1833,-0.1778,-0.1777,-0.1776,-0.1645,-0.1642,-0.1639,-0.1636,-0.1587,-0.1588,-0.159,0,0,0,0,0,0,0,0,0,0,0,0,0,-0.1814,-0.1837,-0.1834,-0.1761,-0.1754,-0.1778,-0.1777,-0.1776,-0.1646,-0.1642,-0.1638,-0.1634,-0.1586,-0.1588,-0.159,-0.1683,0,0,-0.1595,-0.1596,0,0,0,0,0,0,0,0,-0.1815,-0.1814,-0.1772,-0.1766,-0.1758,-0.1714,-0.1759,-0.1745,-0.1647,-0.1687,-0.1637,-0.1632,-0.1633,-0.1631,-0.1629,-0.1681,-0.1679,-0.1595,-0.1597,-0.1597,-0.1598,0,0,0,0,0,0,0,-0.1817,-0.1815,-0.1812,-0.1772,-0.1763,-0.1733,-0.1725,-0.1756,-0.1684,-0.1683,-0.1674,-0.1668,-0.1628,-0.1628,-0.1627,-0.1678,-0.1595,-0.1597,-0.1598,-0.1599,-0.1802,-0.1807,0,0,0,0,0,0,-0.1828,-0.1817,-0.1814,-0.181,-0.1777,-0.1736,-0.1727,-0.1732,-0.1683,-0.1672,-0.1672,-0.1662,-0.1627,-0.1625,-0.1625,-0.173,-0.1597,-0.1599,-0.16,-0.1798,-0.1803,-0.1808,0,0,0,0,0,0,-0.1828,-0.1829,-0.1816,-0.1811,-0.1807,-0.174,-0.1747,-0.1733,-0.1732,-0.1674,-0.1662,-0.1684,-0.1624,-0.1622,-0.1669,-0.1727,-0.16,-0.1602,-0.1793,-0.18,-0.1806,-0.1942,0,0,0,0,0,0,-0.1829,-0.183,-0.1863,-0.1813,-0.1808,-0.1859,-0.1751,-0.1735,-0.1735,-0.1722,-0.1683,-0.1672,-0.162,-0.1667,-0.1671,-0.1727,-0.1603,-0.1788,-0.1796,-0.1804,-0.1932,-0.1952,-0.197,0,0,0,0,0,-0.183,-0.1906,-0.1865,-0.1866,-0.1848,-0.1863,-0.186,-0.1796,-0.174,-0.1774,-0.1737,-0.1674,-0.172,-0.1673,-0.1676,-0.1734,-0.1784,-0.1794,-0.1803,-0.1924,-0.1948,-0.1969,0,0,0,0,0,0,-0.1968,-0.1898,-0.1852,-0.1914,-0.1895,-0.184,-0.1881,-0.1825,-0.1823,-0.1812,-0.1735,-0.1727,-0.1784,-0.1764,-0.1712,-0.1821,-0.1742,-0.1752,-0.1832,-0.1855,-0.1874,-0.1877,-0.1605,0,0,0,0,0,-0.2005,-0.202,-0.1959,-0.202,-0.2012,-0.1949,-0.1953,-0.1905,-0.1883,-0.1876,-0.1841,-0.1825,-0.1835,-0.1844,-0.1851,-0.1929,-0.1918,-0.197,-0.1989,-0.2004,-0.2015,-0.2053,-0.2075,-0.184,-0.184,-0.184,0,0,-0.2082,-0.2046,-0.2061,-0.2047,-0.2026,-0.2046,-0.1943,-0.1969,-0.1983,-0.188,-0.192,-0.1896,-0.1872,-0.1934,-0.196,-0.1919,-0.2077,-0.2017,-0.203,-0.2031,-0.2066,-0.2088,-0.2108,-0.1846,-0.1845,-0.1844,0,0,-0.2233,-0.2208,-0.2254,-0.2235,-0.2205,-0.2162,-0.2173,-0.2127,-0.2105,-0.2144,-0.2067,-0.2085,-0.2105,-0.2091,-0.2086,-0.2232,-0.2173,-0.2236,-0.2335,-0.2373,-0.2392,-0.2408,-0.2459,-0.2478,-0.2247,-0.2247,-0.2247,0,-0.2335,-0.2358,-0.2286,-0.2316,-0.2312,-0.2217,-0.2264,-0.2251,-0.2226,-0.2226,-0.218,-0.2201,-0.2179,-0.2236,-0.2271,-0.2271,-0.2283,-0.224,-0.2394,-0.241,-0.2424,-0.2471,-0.2491,-0.2255,-0.2254,-0.2253,-0.2253,0,-0.2484,-0.2502,-0.2544,-0.2518,-0.2519,-0.2558,-0.2493,-0.2504,-0.2456,-0.2419,-0.246,-0.243,-0.2428,-0.2438,-0.2394,-0.2489,-0.2464,-0.2408,-0.2326,-0.2455,-0.2498,-0.2516,-0.2266,-0.2263,-0.2261,-0.2259,0,0,-0.272,-0.2653,-0.2669,-0.2656,-0.2615,-0.2628,-0.2664,-0.2659,-0.2669,-0.2655,-0.2683,-0.2702,-0.2648,-0.2643,-0.2596,-0.2631,-0.2746,-0.2569,-0.2567,-0.2602,-0.2849,-0.289,-0.2913,-0.2708,-0.2711,-0.2713,-0.285,0,-0.2861,-0.2913,-0.2849,-0.2917,-0.2933,-0.2843,-0.2874,-0.2853,-0.282,-0.283,-0.2794,-0.2807,-0.2736,-0.2733,-0.2762,-0.2726,-0.2795,-0.2715,-0.2734,-0.2735,-0.2741,-0.2935,-0.298,-0.311,-0.2867,-0.287,-0.2872,0,-0.3031,-0.3022,-0.309,-0.3044,-0.3048,-0.3076,-0.3066,-0.3077,-0.3052,-0.3025,-0.302,-0.2962,-0.2995,-0.2916,-0.2961,-0.2908,-0.2912,-0.2896,-0.2899,-0.2898,-0.281,-0.2938,-0.315,-0.3169,-0.2898,-0.2896,-0.2894,0,-0.3195,-0.32,-0.3241,-0.3233,-0.318,-0.3202,-0.3181,-0.3152,-0.3153,-0.3146,-0.3146,-0.3144,-0.3143,-0.3143,-0.3087,-0.3035,-0.3139,-0.3056,-0.3118,-0.3119,-0.3143,-0.3142,-0.3357,-0.3149,-0.3148,-0.3148,-0.3147,0,-0.3358,-0.3403,-0.3313,-0.3339,-0.3387,-0.3314,-0.3365,-0.3335,-0.331,-0.3329,-0.3254,-0.3274,-0.3199,-0.3212,-0.3169,-0.3212,-0.3213,-0.3192,-0.318,-0.3198,-0.32,-0.3198,-0.3187,-0.3153,-0.3152,-0.3151,-0.315,0,-0.3548,-0.349,-0.3528,-0.3475,-0.3462,-0.35,-0.3455,-0.3477,-0.3438,-0.3463,-0.3465,-0.3405,-0.3416,-0.336,-0.3363,-0.3333,-0.3397,-0.3371,-0.3405,-0.3396,-0.346,-0.3455,-0.3681,-0.3707,-0.3484,-0.3486,-0.3488,0,-0.3655,-0.3687,-0.3636,-0.3642,-0.3624,-0.3635,-0.3635,-0.3566,-0.3569,-0.3543,-0.3568,-0.3572,-0.3571,-0.3594,-0.3552,-0.3553,-0.3525,-0.3604,-0.3524,-0.3541,-0.3524,-0.3521,-0.3524,-0.362,-0.3623,-0.3625,-0.3627,0,-0.385,-0.3819,-0.382,-0.3812,-0.3813,-0.3803,-0.3789,-0.3799,-0.3724,-0.3732,-0.374,-0.374,-0.374,-0.3745,-0.3738,-0.3719,-0.3661,-0.3653,-0.3667,-0.3684,-0.3702,-0.3691,-0.3448,-0.3648,-0.3646,-0.3644,-0.3643,-0.3642,-0.4,-0.4024,-0.3991,-0.3995,-0.3976,-0.3964,-0.3981,-0.3944,-0.3949,-0.3941,-0.3901,-0.3917,-0.3892,-0.3875,-0.3862,-0.3874,-0.3837,-0.3858,-0.3863,-0.3869,-0.3879,-0.3701,-0.3873,-0.3873,-0.3872,-0.3872,-0.3871,0,-0.419,-0.4164,-0.4168,-0.4148,-0.4152,-0.4095,-0.4076,-0.4083,-0.4097,-0.4077,-0.4077,-0.4087,-0.4092,-0.405,-0.4049,-0.4067,-0.4041,-0.4069,-0.4066,-0.4062,-0.3914,-0.39,-0.4091,-0.4091,-0.409,-0.409,-0.409,-0.409,-0.4288,-0.4324,-0.429,-0.4317,-0.4291,-0.4304,-0.4298,-0.4287,-0.427,-0.4283,-0.4285,-0.4257,-0.4228,-0.4225,-0.4227,-0.4214,-0.4217,-0.4255,-0.4233,-0.4095,-0.4073,-0.4053,-0.404,-0.4256,-0.4257,-0.438,-0.4382,-0.4383]},{"header":{"parameterUnit":"m.s-1","parameterCategory":1,"la1":30.2991,"la2":30.254,"lo1":-89.0895,"lo2":-89.0444,"dx":0.0017,"dy":0.0017,"nx":28,"ny":28,"refTime":"2022-11-15T15:00:00:Z","depth":0,"parameterNumber":3,"parameterNumberName":"V-component_of_WINDS"},"data":[0,0,0,0,0,0,0,0,0,0,0,0,0,0,0,0,0,0,0,0,0,0,0,0,0,0,0,0,0,0,0,0,0,0,0,0,0,0,0,0,0,0,0,0,0,0,0,0,0,0,0,0,0,0,0,0,0,0,-2.85,-2.8496,0,-2.8113,-2.8109,-2.8105,-2.7919,-2.7919,-2.7919,-2.7919,-2.7499,-2.7488,-2.7477,0,0,0,0,0,0,0,0,0,0,0,0,0,-2.9049,-2.904,-2.8501,-2.8496,-2.8491,-2.8114,-2.8109,-2.8103,-2.7919,-2.7919,-2.7919,-2.7919,-2.7503,-2.7489,-2.7476,0,0,0,0,0,0,0,0,0,0,0,0,0,-2.8751,-2.9037,-2.8501,-2.8354,-2.8337,-2.8115,-2.8109,-2.8102,-2.7918,-2.7919,-2.7919,-2.7919,-2.7507,-2.7491,-2.7474,-2.7363,0,0,-2.7422,-2.7414,0,0,0,0,0,0,0,0,-2.8768,-2.8731,-2.838,-2.8364,-2.8344,-2.8065,-2.8148,-2.7853,-2.7918,-2.8077,-2.7919,-2.792,-2.7685,-2.7654,-2.758,-2.7343,-2.7325,-2.742,-2.741,-2.7403,-2.7398,0,0,0,0,0,0,0,-2.8789,-2.8747,-2.8346,-2.8375,-2.8353,-2.8297,-2.8255,-2.8091,-2.7883,-2.8063,-2.8049,-2.8006,-2.7675,-2.7597,-2.7569,-2.7319,-2.7421,-2.7406,-2.7395,-2.7388,-2.6955,-2.6954,0,0,0,0,0,0,-2.8838,-2.8765,-2.8359,-2.8335,-2.8562,-2.8287,-2.824,-2.8154,-2.7885,-2.7845,-2.8007,-2.7999,-2.7626,-2.7589,-2.7553,-2.7396,-2.7403,-2.7387,-2.7377,-2.6956,-2.6955,-2.6954,0,0,0,0,0,0,-2.885,-2.8803,-2.8374,-2.8546,-2.8487,-2.8277,-2.8182,-2.8146,-2.8068,-2.7843,-2.7802,-2.7967,-2.7624,-2.7577,-2.741,-2.738,-2.7379,-2.7363,-2.6958,-2.6956,-2.6954,-2.7089,0,0,0,0,0,0,-2.8867,-2.8809,-2.8773,-2.8547,-2.8479,-2.8248,-2.818,-2.8138,-2.8041,-2.8028,-2.7794,-2.7755,-2.7621,-2.7436,-2.7393,-2.7356,-2.735,-2.696,-2.6957,-2.6955,-2.7086,-2.7092,-2.7097,0,0,0,0,0,-2.8887,-2.8824,-2.8772,-2.8724,-2.8431,-2.8247,-2.8207,-2.8061,-2.8041,-2.7996,-2.7849,-2.7763,-2.7391,-2.7421,-2.737,-2.7328,-2.6961,-2.6958,-2.6955,-2.7084,-2.7091,-2.7097,0,0,0,0,0,0,-2.9046,-2.8792,-2.8732,-2.8595,-2.8445,-2.8216,-2.8157,-2.8075,-2.7921,-2.7914,-2.7731,-2.7679,-2.7526,-2.7409,-2.7448,-2.7198,-2.7166,-2.7153,-2.7281,-2.7286,-2.7291,-2.7321,-2.7336,0,0,0,0,0,-2.9066,-2.8947,-2.8728,-2.8627,-2.8556,-2.837,-2.8284,-2.8184,-2.8018,-2.7951,-2.7793,-2.7627,-2.747,-2.7372,-2.7217,-2.7068,-2.7007,-2.7012,-2.7018,-2.7023,-2.7013,-2.6913,-2.6909,-2.6944,-2.6944,-2.6944,0,0,-2.9104,-2.895,-2.8886,-2.8655,-2.8527,-2.8397,-2.8317,-2.8186,-2.8084,-2.7928,-2.7761,-2.7638,-2.7439,-2.7279,-2.7199,-2.7176,-2.6989,-2.702,-2.7026,-2.7012,-2.6909,-2.6906,-2.6904,-2.6942,-2.6943,-2.6943,0,0,-2.9108,-2.8984,-2.8883,-2.8755,-2.8563,-2.8438,-2.8414,-2.8196,-2.811,-2.794,-2.7817,-2.7688,-2.7427,-2.7288,-2.7183,-2.7122,-2.7032,-2.7076,-2.7102,-2.7007,-2.7004,-2.7,-2.697,-2.6962,-2.7066,-2.7067,-2.7067,0,-2.9178,-2.8988,-2.8839,-2.8713,-2.861,-2.8467,-2.8356,-2.8236,-2.8001,-2.7927,-2.7907,-2.757,-2.7427,-2.7226,-2.721,-2.7133,-2.7089,-2.7101,-2.7018,-2.7013,-2.7007,-2.6975,-2.6965,-2.7073,-2.7072,-2.7072,-2.7071,0,-2.9078,-2.8946,-2.8885,-2.8667,-2.8556,-2.8439,-2.8262,-2.8165,-2.8072,-2.7946,-2.7766,-2.7589,-2.7391,-2.7336,-2.7243,-2.7117,-2.7107,-2.7056,-2.7018,-2.7013,-2.6979,-2.6967,-2.7082,-2.7079,-2.7078,-2.7076,0,0,-2.9175,-2.8872,-2.8851,-2.8746,-2.8519,-2.8408,-2.8277,-2.809,-2.8006,-2.7845,-2.7723,-2.7501,-2.7448,-2.7328,-2.7216,-2.7133,-2.7084,-2.7088,-2.708,-2.7087,-2.6921,-2.6959,-2.6949,-2.7024,-2.7021,-2.7019,-2.6935,0,-2.9142,-2.8913,-2.877,-2.8592,-2.8461,-2.8318,-2.8201,-2.8043,-2.7919,-2.778,-2.7638,-2.7481,-2.7429,-2.7354,-2.7266,-2.711,-2.7047,-2.7114,-2.6897,-2.6891,-2.6948,-2.6933,-2.6975,-2.6905,-2.6922,-2.692,-2.6918,0,-2.9076,-2.8923,-2.8734,-2.8512,-2.8451,-2.8352,-2.8161,-2.8035,-2.7846,-2.776,-2.7624,-2.7509,-2.7351,-2.7329,-2.7101,-2.715,-2.7051,-2.6959,-2.6952,-2.6923,-2.6903,-2.6896,-2.6881,-2.6868,-2.6898,-2.69,-2.6901,0,-2.9157,-2.8903,-2.8754,-2.8668,-2.8408,-2.8339,-2.8225,-2.8038,-2.793,-2.776,-2.7686,-2.7498,-2.7394,-2.7245,-2.7077,-2.7078,-2.6862,-2.6828,-2.6776,-2.678,-2.6736,-2.674,-2.6698,-2.6682,-2.6682,-2.6682,-2.6682,0,-2.9134,-2.9022,-2.8786,-2.8695,-2.8559,-2.8391,-2.8258,-2.8131,-2.7963,-2.7835,-2.7697,-2.7577,-2.7366,-2.7216,-2.7082,-2.6908,-2.6863,-2.678,-2.6745,-2.679,-2.68,-2.672,-2.6718,-2.6679,-2.668,-2.668,-2.6681,0,-2.9203,-2.9043,-2.8869,-2.8636,-2.8574,-2.8484,-2.8278,-2.8176,-2.8042,-2.788,-2.7831,-2.7617,-2.7432,-2.7251,-2.7002,-2.6911,-2.6735,-2.6692,-2.6802,-2.6781,-2.6737,-2.6741,-2.6638,-2.6611,-2.6621,-2.6621,-2.6621,0,-2.9198,-2.9108,-2.8865,-2.8772,-2.8663,-2.8516,-2.8405,-2.8231,-2.8119,-2.7891,-2.7814,-2.762,-2.7456,-2.7164,-2.6979,-2.6783,-2.673,-2.6707,-2.6699,-2.6744,-2.672,-2.6726,-2.671,-2.6711,-2.6712,-2.6713,-2.6713,0,-2.9202,-2.9125,-2.8976,-2.8795,-2.8668,-2.8516,-2.8358,-2.8286,-2.8078,-2.7957,-2.777,-2.7643,-2.7387,-2.7191,-2.6973,-2.6841,-2.6737,-2.6717,-2.6693,-2.6736,-2.6801,-2.6757,-2.6809,-2.672,-2.6719,-2.6719,-2.6718,-2.6718,-2.9228,-2.9138,-2.8951,-2.8785,-2.8648,-2.8501,-2.8392,-2.8244,-2.8087,-2.7871,-2.7773,-2.7581,-2.7379,-2.7076,-2.6946,-2.6784,-2.6759,-2.6727,-2.6717,-2.671,-2.6716,-2.6831,-2.6744,-2.6744,-2.6743,-2.6743,-2.6743,0,-2.922,-2.9091,-2.8941,-2.8725,-2.859,-2.8512,-2.8329,-2.8219,-2.8055,-2.788,-2.7721,-2.7497,-2.7304,-2.7102,-2.6894,-2.6802,-2.6748,-2.6752,-2.6754,-2.6723,-2.6756,-2.6794,-2.6799,-2.6799,-2.6799,-2.6799,-2.6799,-2.6799,-2.92,-2.904,-2.8939,-2.8704,-2.8571,-2.8389,-2.8289,-2.8147,-2.8006,-2.7766,-2.7608,-2.7479,-2.7287,-2.7063,-2.6877,-2.682,-2.6746,-2.6763,-2.6693,-2.6726,-2.6723,-2.6719,-2.6754,-2.675,-2.675,-2.6672,-2.6672,-2.6671]}]]